Location: ????????
(56.1167°N, 38.6333°E)
Time: 22:15:09
(UTC+00:00)

Sich 1 Rocket - Pass Details

Date: 18 November 2025
Orbit: 611 x 646 km, 82.5° (Epoch: 06 December)

Event Time Altitude Azimuth Distance (km) Brightness Sun altitude
Rises 16:30:59 0° 202° (SSW) 2,947 7.2 -27.1°
Reaches altitude 10° 16:33:16 10° 207° (SSW) 2,044 6.4 -27.4°
Enters shadow 16:37:29 57° 270° (W) 766 4.2 -28.0°
